Météo par heure à Kyuryag

Ce jour, 24 Juillet, Samedi

Heure Température Précipitation Vent Pression Humidité
00:00 +20°C° 0.1 mm 1 m/s 663 mmHg 83%
01:00 +20°C° 0.1 mm 1 m/s 664 mmHg 86%
02:00 +20°C° 0.1 mm 1 m/s 664 mmHg 88%
03:00 +20°C° 0.1 mm 1 m/s 664 mmHg 90%
04:00 +20°C° 0.2 mm 1 m/s 664 mmHg 90%
05:00 +20°C° 0.2 mm 1 m/s 665 mmHg 90%
06:00 +20°C° 0.2 mm 1 m/s 665 mmHg 89%
07:00 +20°C° 0.2 mm 1 m/s 665 mmHg 88%
08:00 +20°C° 0.2 mm 1 m/s 665 mmHg 86%
09:00 +20°C° 0.2 mm 1 m/s 665 mmHg 84%
10:00 +20°C° 0.6 mm 1 m/s 665 mmHg 85%
11:00 +20°C° 0.6 mm 1 m/s 665 mmHg 87%
12:00 +20°C° 0.6 mm 1 m/s 665 mmHg 88%
13:00 +20°C° 0.1 mm 2 m/s 666 mmHg 84%
14:00 +21°C° 0.1 mm 2 m/s 666 mmHg 80%
15:00 +21°C° 0.1 mm 2 m/s 666 mmHg 77%
16:00 +21°C° 0.1 mm 2 m/s 666 mmHg 79%
17:00 +21°C° 0.1 mm 1 m/s 666 mmHg 81%
18:00 +19°C° 0.1 mm 0 m/s 666 mmHg 83%
19:00 +21°C° 0 mm 1 m/s 667 mmHg 84%
20:00 +20°C° 0 mm 1 m/s 667 mmHg 84%
21:00 +20°C° 0 mm 1 m/s 667 mmHg 85%
22:00 +20°C° 0 mm 1 m/s 667 mmHg 84%
23:00 +20°C° 0 mm 1 m/s 667 mmHg 84%

Demain, 25 Juillet, Dimanche

Heure Température Précipitation Vent Pression Humidité
00:00 +20°C° 0 mm 1 m/s 667 mmHg 84%
01:00 +19°C° 0 mm 1 m/s 667 mmHg 84%
02:00 +19°C° 0 mm 1 m/s 667 mmHg 84%
03:00 +19°C° 0 mm 1 m/s 667 mmHg 84%
04:00 +20°C° 0 mm 1 m/s 668 mmHg 81%
05:00 +20°C° 0 mm 1 m/s 668 mmHg 79%
06:00 +21°C° 0 mm 1 m/s 669 mmHg 77%
07:00 +22°C° 0 mm 1 m/s 669 mmHg 71%
08:00 +23°C° 0 mm 2 m/s 669 mmHg 66%
09:00 +24°C° 0 mm 2 m/s 669 mmHg 61%
10:00 +24°C° 0 mm 3 m/s 669 mmHg 59%
11:00 +25°C° 0 mm 3 m/s 670 mmHg 57%
12:00 +26°C° 0 mm 3 m/s 670 mmHg 55%
13:00 +25°C° 0 mm 3 m/s 670 mmHg 56%
14:00 +25°C° 0 mm 3 m/s 669 mmHg 58%
15:00 +25°C° 0 mm 3 m/s 669 mmHg 59%
16:00 +24°C° 0 mm 3 m/s 669 mmHg 61%
17:00 +24°C° 0 mm 2 m/s 670 mmHg 63%
18:00 +23°C° 0 mm 2 m/s 670 mmHg 64%
19:00 +21°C° 0 mm 2 m/s 670 mmHg 69%
20:00 +21°C° 0 mm 1 m/s 670 mmHg 74%
21:00 +19°C° 0 mm 1 m/s 670 mmHg 78%
22:00 +19°C° 0 mm 1 m/s 669 mmHg 78%
23:00 +19°C° 0 mm 1 m/s 669 mmHg 78%

Après-demain, 26 Juillet, Lundi

Heure Température Précipitation Vent Pression Humidité
00:00 +19°C° 0 mm 1 m/s 669 mmHg 78%
01:00 +19°C° 0 mm 1 m/s 669 mmHg 78%
02:00 +19°C° 0 mm 1 m/s 669 mmHg 78%
03:00 +19°C° 0 mm 1 m/s 669 mmHg 78%
04:00 +20°C° 0 mm 1 m/s 670 mmHg 75%
05:00 +21°C° 0 mm 1 m/s 670 mmHg 71%
06:00 +22°C° 0 mm 1 m/s 670 mmHg 68%
07:00 +23°C° 0 mm 1 m/s 670 mmHg 61%
08:00 +25°C° 0 mm 2 m/s 671 mmHg 53%
09:00 +27°C° 0 mm 3 m/s 671 mmHg 45%
10:00 +27°C° 0 mm 3 m/s 671 mmHg 43%
11:00 +28°C° 0 mm 4 m/s 671 mmHg 41%
12:00 +29°C° 0 mm 4 m/s 671 mmHg 38%
13:00 +29°C° 0.1 mm 4 m/s 671 mmHg 39%
14:00 +29°C° 0.1 mm 4 m/s 670 mmHg 39%
15:00 +29°C° 0.1 mm 4 m/s 670 mmHg 39%
16:00 +28°C° 0 mm 3 m/s 670 mmHg 42%
17:00 +27°C° 0 mm 3 m/s 670 mmHg 45%
18:00 +26°C° 0 mm 2 m/s 670 mmHg 48%
19:00 +24°C° 0 mm 2 m/s 670 mmHg 53%
20:00 +21°C° 0 mm 2 m/s 670 mmHg 58%
21:00 +20°C° 0 mm 2 m/s 669 mmHg 63%
22:00 +19°C° 0 mm 2 m/s 669 mmHg 63%
23:00 +19°C° 0 mm 2 m/s 669 mmHg 64%

27 Juillet, Mardi

Heure Température Précipitation Vent Pression Humidité
00:00 +19°C° 0 mm 2 m/s 669 mmHg 64%
01:00 +19°C° 0.1 mm 2 m/s 669 mmHg 65%
02:00 +19°C° 0.1 mm 2 m/s 669 mmHg 65%
03:00 +18°C° 0.1 mm 2 m/s 669 mmHg 66%
04:00 +19°C° 0 mm 2 m/s 669 mmHg 63%
05:00 +21°C° 0 mm 1 m/s 669 mmHg 60%
06:00 +22°C° 0 mm 1 m/s 669 mmHg 58%
07:00 +23°C° 0 mm 2 m/s 669 mmHg 52%
08:00 +25°C° 0 mm 3 m/s 669 mmHg 47%
09:00 +26°C° 0 mm 3 m/s 670 mmHg 42%
10:00 +27°C° 0.1 mm 4 m/s 670 mmHg 41%
11:00 +27°C° 0.1 mm 4 m/s 670 mmHg 40%
12:00 +28°C° 0.1 mm 4 m/s 669 mmHg 40%
13:00 +28°C° 0.1 mm 5 m/s 669 mmHg 41%
14:00 +28°C° 0.1 mm 5 m/s 669 mmHg 42%
15:00 +27°C° 0.1 mm 5 m/s 669 mmHg 44%
16:00 +26°C° 0 mm 5 m/s 669 mmHg 52%
17:00 +23°C° 0 mm 4 m/s 669 mmHg 61%
18:00 +22°C° 0 mm 4 m/s 669 mmHg 70%
19:00 +20°C° 1.4 mm 3 m/s 669 mmHg 77%
20:00 +19°C° 1.4 mm 3 m/s 669 mmHg 84%
21:00 +18°C° 1.4 mm 2 m/s 669 mmHg 90%
22:00 +18°C° 3.2 mm 2 m/s 669 mmHg 92%
23:00 +17°C° 3.2 mm 2 m/s 668 mmHg 93%

28 Juillet, Mercredi

Heure Température Précipitation Vent Pression Humidité
00:00 +16°C° 3.2 mm 2 m/s 668 mmHg 95%
01:00 +16°C° 0.3 mm 2 m/s 668 mmHg 90%
02:00 +16°C° 0.3 mm 2 m/s 668 mmHg 84%
03:00 +16°C° 0.3 mm 2 m/s 668 mmHg 79%
04:00 +16°C° 0 mm 2 m/s 668 mmHg 77%
05:00 +16°C° 0 mm 2 m/s 669 mmHg 75%
06:00 +16°C° 0 mm 1 m/s 669 mmHg 73%
07:00 +16°C° 0 mm 1 m/s 669 mmHg 70%
08:00 +16°C° 0 mm 1 m/s 669 mmHg 68%
09:00 +16°C° 0 mm 2 m/s 669 mmHg 65%
10:00 +17°C° 0.1 mm 2 m/s 669 mmHg 64%
11:00 +17°C° 0.1 mm 2 m/s 669 mmHg 63%
12:00 +18°C° 0.1 mm 2 m/s 669 mmHg 61%
13:00 +17°C° 0.1 mm 2 m/s 669 mmHg 63%
14:00 +17°C° 0.1 mm 2 m/s 669 mmHg 64%
15:00 +17°C° 0.1 mm 2 m/s 669 mmHg 66%
16:00 +17°C° 0 mm 2 m/s 669 mmHg 66%
17:00 +17°C° 0 mm 2 m/s 669 mmHg 66%
18:00 +17°C° 0 mm 2 m/s 670 mmHg 66%
19:00 +16°C° 0 mm 2 m/s 669 mmHg 69%
20:00 +15°C° 0 mm 2 m/s 669 mmHg 72%
21:00 +14°C° 0 mm 2 m/s 669 mmHg 75%
22:00 +13°C° 0 mm 3 m/s 669 mmHg 73%
23:00 +13°C° 0 mm 3 m/s 669 mmHg 71%

29 Juillet, Jeudi

Heure Température Précipitation Vent Pression Humidité
00:00 +13°C° 0 mm 3 m/s 669 mmHg 69%
01:00 +13°C° 0 mm 3 m/s 668 mmHg 65%
02:00 +12°C° 0 mm 3 m/s 668 mmHg 60%
03:00 +12°C° 0 mm 3 m/s 668 mmHg 55%
04:00 +13°C° 0 mm 3 m/s 668 mmHg 54%
05:00 +14°C° 0 mm 3 m/s 669 mmHg 52%
06:00 +15°C° 0 mm 2 m/s 669 mmHg 50%
07:00 +17°C° 0 mm 2 m/s 669 mmHg 45%
08:00 +19°C° 0 mm 2 m/s 670 mmHg 39%
09:00 +21°C° 0 mm 2 m/s 670 mmHg 34%
10:00 +23°C° 0 mm 2 m/s 670 mmHg 33%
11:00 +24°C° 0 mm 3 m/s 670 mmHg 32%
12:00 +25°C° 0 mm 3 m/s 670 mmHg 31%
13:00 +25°C° 0 mm 4 m/s 670 mmHg 32%
14:00 +25°C° 0 mm 4 m/s 670 mmHg 33%
15:00 +23°C° 0 mm 4 m/s 669 mmHg 34%
16:00 +22°C° 0 mm 3 m/s 669 mmHg 37%
17:00 +21°C° 0 mm 2 m/s 669 mmHg 40%
18:00 +20°C° 0 mm 2 m/s 669 mmHg 43%
19:00 +19°C° 0 mm 2 m/s 669 mmHg 47%
20:00 +17°C° 0 mm 2 m/s 669 mmHg 51%
21:00 +14°C° 0 mm 3 m/s 669 mmHg 56%
22:00 +14°C° 0 mm 3 m/s 668 mmHg 56%
23:00 +14°C° 0 mm 3 m/s 668 mmHg 56%
Voir plus

Nous avons besoin de votre consentement

Meteoprog et ses fournisseurs de services peuvent stocker et accéder à des données personnelles telles que des cookies, des identifiants d'appareils ou d'autres technologies similaires sur votre appareil et traiter ces données pour personnaliser le contenu et les publicités, ainsi que pour fournir des fonctionnalités de médias sociaux et analyser le trafic.

  • Stocker et/ou accéder à des informations sur votre appareil

    Des cookies, des identifiants d'appareils ou d'autres informations peuvent être stockés ou accessibles sur votre appareil aux fins indiquées ci-dessus.

  • Annonces et contenus personnalisés, mesure des annonces et des contenus, connaissance de l'audience et développement de produits

    Les annonces et le contenu peuvent être personnalisés en fonction d'un profil. D'autres données peuvent être ajoutées pour mieux personnaliser les annonces et le contenu. Les performances des publicités et du contenu peuvent être mesurées. Il est possible d'obtenir des informations sur le public qui a vu les publicités et le contenu. Ces données peuvent être utilisées pour développer ou améliorer l'expérience de l'utilisateur, les systèmes et les logiciels.

En cliquant sur "J'accepte", vous autorisez l'utilisation de cookies, des identifiants d'appareils, des balises web ou d'autres technologies similaires. Vos paramètres peuvent être modifiés dans le navigateur de votre appareil.

Dans certains cas, des intérêts légitimes peuvent être invoqués plutôt qu'un consentement. Vous pouvez en savoir plus à ce sujet dans notre Politique de confidentialité et de cookies.